SCP
0 0 0 0 0 0 0 0 0 0 0 0 0 0 0 0 0 0 0 0 0 0 0 0 0 0 0 -0 0 0 0 0 0 0 0 0 0 0 0 0 0 0 0
0 0 0 0 0 0 0 0 0 0 0 0 0 0 0 0 0 0 0 0 0 0 0 0 0 0 0 0 0 0 0 0 0 0 0 0 0 0 0 0 0 0 0
-0 0 0 0 0 0 0 0 0 0 0 0 0 0 0 0 0 0 0 0 0 0 0 0 0 0 0 0 0 0 0 0 0 0 0 0 0 0 0 0 0 0 0
0 0 0 0 0 0 0 0 0 0 0 0 0 0 0 0 0 0 0 0 0 0 0 0 0 0 0 0 0 0 0 0 0 0 0 0 0 0 0 0 0 0 0
0 0 0 0 0 0 0 0 0 0 0 0 0 0 0 0 0 0 0 0 0 0 0 0 0 0 0 0 0 0 0 0 0 0 0 0 0 0 0 0 0 0 0
0 0 0 0 0 0 0 0 0 0 0 0 0 0 0 0 0 0 0 0 0 0 0 0 0 0 0 0 0 0 0 0 0 0 0 0 0 0 0 0 0 0 0
0 0 0 0 0 0 0 0 0 0 0 0 0 0 0 0 0 0 0 0 0 0 0 0 0 0 0 0 0 0 0 0 0 0 0 0 0 0 0 0 0 0 0
0 0 0 0 0 0 0 0 0 0 0 0 0 0 0 0 0 0 0 0 0 0 0 0 0 0 0 0 0 0 0 0 0 0 0 0 0 0 0 0 0 0 0
0 0 0 0 0 0 0 0 0 0 0 0 0 0 0 0 0 0 0 0 0 0 0 0 0 0 0 0 0 0 0 0 0 0 0 0 0 0 0 0 0 0 0
0 0 0 0 0 0 0 0 0 0 0 0 0 0 0 0 0 0 0 0 0 0 0 0 0 0 0 0 0 0 0 0 0 0 0 0 0 0 0 0 0 0 0
0 0 0 0 0 0 0 0 0 0 0 0 0 0 0 0 0 0 0 0 0 0 0 0 0 0 0 0 0 0 0 0 0 0 0 0 0 0 0 0 0 0 0
-0 0 0 0 0 0 0 0 0 0 0 0 0 0 0 0 0 0 0 0 0 0 0 0 0 0 0 0 0 0 0 0 0 0 0 0 0 0 0 0 0 0 0
0 -0 0 0 0 0 0 0 0 0 0 0 0 0 0 0 0 0 0 0 0 0 0 0 0 0 0 0 0 0 0 0 0 0 0 0 0 0 0 0 0 0 0
0 0 0 0 0 0 0 0 0 0 0 0 0 0 0 0 0 0 0 0 0 0 0 0 0 0 0 0 0 0 0 0 0 0 0 0 0 0 0 0 0 0 0
0 0 0 0 0 0 0 0 0 0 0 0 0 0 0 0 0 0 0 0 0 0 0 0 0 0 0 0 0 0 0 0 0 0 0 0 0 0 0 0 0 0 0
0 0 0 0 0 0 0 0 0 0 0 0 0 0 0 0 0 0 0 0 0 0 0 0 0 0 0 0 0 0 0 0 0 0 0 0 0 0 0 0 0 0 0
0 0 1 0 0 0 0 0 0 0 0 0 0 0 0 0 0 0 0 0 0 0 0 0 0 0 0 0 0 0 0 0 0 0 0 0 0 0 0 0 0 0 0
0 0 0 0 0 0 0 0 0 0 0 0 0 0 0 0 0 0 0 0 0 0 0 0 0 0 0 0 0 0 0 0 0 0 0 0 0 0 0 0 0 0 0
0 0 0 0 0 0 0 0 0 0 0 0 0 0 0 0 0 0 0 0 0 0 0 0 0 0 0 0 0 0 0 0 0 0 0 0 0 -0 0 0 0 0 0
0 0 0 0 0 0 0 0 0 0 0 0 0 0 0 0 0 0 0 0 0 0 0 0 0 0 0 0 0 0 0 0 0 0 0 0 0 0 -0 0 0 0 0
0 0 0 0 0 0 0 0 0 0 0 0 0 0 0 0 0 0 0 0 0 0 0 0 0 0 0 0 0 0 0 0 0 0 0 0 0 0 0 0 0 0 0
0 0 0 0 0 0 0 0 0 0 0 0 0 0 0 0 0 0 0 0 0 0 0 0 0 0 0 0 0 0 0 0 0 0 0 0 0 0 0 0 0 0 0
0 0 0 0 0 0 0 0 0 0 0 0 0 0 0 0 0 0 0 0 0 0 0 0 0 0 0 0 0 0 0 0 0 0 0 0 0 0 0 0 0 0 0
0 0 0 0 0 0 0 0 0 0 0 0 0 0 0 0 0 0 0 0 0 0 0 0 0 0 0 0 0 0 0 0 0 0 0 0 0 0 0 0 0 0 0
0 0 0 0 0 0 0 0 0 0 0 0 0 0 0 0 0 0 0 0 0 0 0 0 0 0 0 0 -0 -0 0 0 0 0 0 0 0 0 0 0 0 0 0
0 0 0 0 0 0 0 0 0 0 0 0 0 0 0 0 0 0 0 0 0 0 0 0 0 0 0 -0 -0 0 0 0 0 0 0 0 0 0 0 -0 0 0 0
Wind_Speed_500mb
51 42 35 20 5 8 17 22 18 7 8 7 9 5 6 10 10 21 25 35 37 36 37 33 31 19 34 45 45 36 33 29 31 28 16 11 5 16 22 26 20 22 28
60 50 40 22 12 7 15 19 18 8 3 7 11 11 10 6 8 17 22 33 31 39 43 39 32 29 32 47 44 39 37 35 33 38 26 21 9 24 27 30 34 36 29
64 51 47 33 22 17 15 14 14 8 7 7 6 8 11 3 6 11 20 26 27 33 39 43 28 30 32 42 45 46 41 40 37 27 26 15 16 50 23 36 32 33 35
62 53 53 45 30 27 15 13 13 12 4 7 10 18 10 8 1 11 10 13 19 25 32 42 29 30 30 35 36 45 37 32 33 33 18 18 25 29 35 46 34 29 34
70 63 62 49 37 33 21 12 11 11 6 4 9 8 9 15 10 8 6 10 13 18 28 39 29 26 34 28 32 37 47 34 27 29 26 18 22 28 35 47 51 36 25
67 64 58 54 45 38 26 15 9 13 11 6 0 1 2 8 11 6 2 3 15 19 29 37 26 23 24 28 28 26 33 38 30 28 27 27 27 29 36 42 44 44 36
67 63 68 65 58 45 27 17 14 10 11 8 4 7 1 6 1 7 12 14 7 17 31 33 31 22 19 25 22 21 25 32 33 36 30 30 23 23 29 35 42 44 35
63 69 73 66 60 38 29 21 19 14 13 10 9 12 6 7 10 12 19 9 13 12 21 30 29 27 16 21 27 28 21 28 29 29 31 32 24 24 19 28 34 42 36
63 70 67 65 47 35 37 27 26 19 14 13 15 14 11 7 10 11 9 12 15 18 21 19 25 29 20 20 24 26 27 27 27 26 26 29 32 23 19 25 21 22 30
74 69 68 61 52 39 40 34 27 21 16 18 15 13 13 16 14 19 18 17 21 25 17 17 20 24 21 25 26 27 26 27 32 28 26 30 33 29 24 22 20 19 22
73 79 72 61 54 40 40 39 31 20 18 18 16 16 19 23 19 22 23 22 24 26 23 20 19 22 25 23 28 28 28 30 33 32 29 32 32 33 29 27 20 18 19
31 52 65 68 56 42 41 40 30 13 10 17 18 20 23 24 24 23 23 25 31 30 26 27 25 23 25 28 31 35 35 34 36 37 38 44 35 37 33 32 26 24 23
51 65 66 61 52 46 38 38 26 16 16 17 19 23 26 24 24 26 29 31 33 32 24 27 29 29 30 28 29 34 38 40 43 44 51 49 44 39 38 40 35 32 30
17 24 31 47 52 43 44 35 25 13 8 16 18 20 23 27 32 33 33 31 32 31 27 28 31 34 36 37 38 41 41 41 46 52 53 48 45 41 37 38 36 39 37
9 51 64 70 51 45 43 32 22 21 17 16 15 19 23 28 28 31 36 33 31 31 30 33 36 41 45 45 43 43 45 48 52 53 56 56 49 41 41 42 43 42 41
41 43 29 46 43 46 39 31 26 20 16 17 17 21 21 24 32 36 38 36 38 39 40 43 45 49 51 51 50 49 52 54 59 62 61 58 50 39 39 40 41 39 39
32 24 26 29 33 28 28 21 13 10 16 20 21 14 19 25 31 36 41 42 43 46 49 53 57 61 65 63 60 57 56 59 63 66 70 63 52 42 42 37 41 42 40
27 28 29 28 31 29 11 8 2 9 17 19 20 19 18 21 28 36 43 47 49 52 57 61 66 72 75 75 74 70 65 62 77 76 75 68 55 45 45 42 37 38 35
18 18 16 20 24 19 12 8 4 9 16 22 24 25 25 29 34 42 48 53 54 57 61 64 73 77 75 74 75 81 72 65 72 72 63 61 55 45 52 57 49 35 36
18 15 17 20 22 16 4 4 7 12 17 20 23 26 30 35 42 48 53 50 58 68 67 64 60 85 62 62 63 64 65 66 63 54 43 50 22 26 35 44 40 41 40
20 14 16 22 19 13 12 17 19 22 24 24 25 30 35 39 44 50 53 57 67 70 69 64 59 57 54 55 52 55 53 61 61 47 47 48 35 43 42 47 50 45 43
23 13 14 20 17 15 17 13 11 14 26 25 26 39 40 44 48 50 53 54 54 54 58 66 65 55 45 48 49 52 54 55 57 54 48 46 42 45 46 52 57 62 64
17 19 13 18 18 10 7 17 27 22 25 35 41 42 42 41 39 40 40 51 51 55 58 59 58 50 36 46 45 44 51 53 55 52 53 53 49 46 46 48 52 54 54
19 21 28 31 27 17 8 17 32 19 26 33 38 36 39 41 42 47 40 46 51 54 56 60 55 47 42 44 47 50 52 51 50 46 47 48 50 44 45 43 44 45 45
33 31 35 32 22 11 17 18 18 24 30 32 33 33 38 41 39 43 45 42 46 51 55 56 44 48 55 56 55 59 60 58 54 53 54 52 53 52 48 47 40 40 37
33 33 29 21 18 15 17 19 20 24 26 28 31 42 32 42 40 36 39 43 44 41 47 36 50 53 54 59 65 65 66 60 57 60 61 58 54 50 50 48 44 42 40
Wind_Direction_500mb
194 172 191 223 263 349 358 9 30 91 97 162 185 171 178 34 343 342 345 355 8 15 17 24 27 11 6 353 360 12 23 9 5 36 76 84 324 333 355 3 320 327 328
179 177 189 203 232 298 322 354 11 49 141 127 93 122 101 60 7 343 348 348 5 11 11 11 21 9 10 2 10 18 23 24 27 25 35 5 353 5 24 7 357 346 331
179 180 189 194 218 228 287 327 353 23 99 153 119 145 125 186 325 315 335 358 347 359 2 2 9 3 11 11 25 26 20 22 26 46 29 355 336 340 332 352 1 350 345
186 188 187 189 207 223 251 301 336 352 67 209 143 172 160 186 91 302 352 351 321 343 351 352 359 11 11 19 19 23 18 20 14 29 33 355 349 346 330 342 352 343 344
190 189 187 192 198 213 240 279 319 338 359 174 205 226 216 215 243 53 43 0 337 332 342 344 353 16 20 16 12 17 19 15 19 17 15 1 342 354 347 336 348 354 356
191 189 191 188 196 204 231 254 304 321 343 346 266 280 67 108 155 79 8 165 356 337 334 337 353 10 21 15 5 8 13 11 2 4 2 358 343 341 348 342 344 345 357
190 186 189 184 188 199 217 238 268 301 321 323 309 301 295 131 168 240 271 271 237 331 323 337 349 1 6 353 350 355 2 358 6 9 3 7 1 331 321 336 341 338 352
185 186 186 184 184 198 216 231 247 268 294 296 286 286 292 228 257 273 295 247 262 302 321 330 342 349 344 338 355 357 354 347 346 358 356 358 359 8 6 348 333 335 346
184 177 180 184 190 202 218 232 230 245 268 285 284 292 295 325 265 311 316 334 330 300 300 308 318 341 338 327 332 345 346 339 338 342 331 340 345 347 339 340 326 332 330
182 184 188 184 198 203 215 225 222 241 265 274 295 301 301 309 311 315 326 320 322 332 312 324 314 315 336 323 321 327 334 333 331 331 324 328 330 343 342 336 352 333 315
179 184 179 186 188 198 217 216 212 228 250 281 292 286 286 298 297 296 309 309 314 317 311 308 315 313 304 305 307 318 322 324 322 326 327 317 308 314 324 329 313 321 319
303 171 183 185 191 201 211 215 210 225 271 280 276 282 293 310 320 320 317 304 303 310 305 311 308 311 304 306 293 293 299 302 313 309 310 312 310 294 299 308 317 305 300
17 339 180 189 189 192 209 213 211 197 214 252 271 292 299 302 312 314 315 307 305 305 302 302 303 304 301 299 299 302 306 306 299 305 312 305 303 296 283 285 294 307 300
339 353 247 225 194 190 193 198 196 199 215 243 272 271 283 294 305 308 307 303 306 306 307 301 299 300 300 299 300 301 297 300 301 304 311 313 299 290 286 276 288 293 293
182 244 224 212 188 190 194 197 197 201 224 265 274 272 285 295 299 307 315 315 315 311 310 309 308 304 300 296 296 294 292 292 293 298 304 309 305 283 277 280 276 280 285
252 252 228 194 194 187 195 196 209 230 275 302 286 276 285 293 301 308 318 317 315 315 315 315 312 310 306 302 296 290 290 290 290 294 297 301 306 283 280 267 275 276 273
48 63 135 159 169 180 181 197 223 272 308 314 321 290 298 296 301 305 310 313 315 315 315 314 312 311 311 311 308 303 300 299 296 296 295 296 300 290 285 286 276 272 271
83 91 109 115 129 156 161 160 211 317 317 322 328 331 314 300 296 296 300 305 308 311 314 315 317 316 318 320 317 310 304 307 302 302 304 301 301 294 287 281 277 273 271
87 98 100 113 127 119 132 151 220 313 324 324 321 319 313 302 295 295 300 304 309 310 314 319 322 320 324 325 322 315 307 308 305 295 312 298 293 280 287 288 276 275 279
98 92 83 96 107 115 123 10 18 348 339 330 319 312 307 304 304 306 311 312 313 314 320 324 325 322 323 327 328 328 325 320 328 332 316 320 304 291 284 290 286 280 286
117 103 80 94 91 89 70 43 20 3 337 326 323 326 319 313 311 309 313 318 322 325 327 330 334 335 333 338 338 342 347 342 343 341 330 319 309 289 281 287 287 288 293
130 132 109 92 88 73 81 59 11 10 343 325 319 321 322 330 332 327 325 328 338 348 347 347 346 347 348 349 346 348 348 350 349 346 342 340 328 318 300 289 284 285 289
142 150 118 97 115 133 153 355 359 330 339 315 317 328 327 333 341 343 352 354 356 351 349 356 355 2 353 353 3 354 348 344 341 340 339 339 333 318 304 303 301 299 297
151 121 130 138 147 168 201 328 341 313 332 320 332 340 335 331 334 342 6 3 7 17 11 9 12 15 17 13 0 350 344 342 343 341 339 337 338 341 338 333 326 318 309
132 124 119 116 109 53 355 354 338 328 324 334 336 342 346 355 20 15 11 13 8 9 14 14 29 25 15 10 1 356 353 353 354 355 355 347 343 341 345 343 335 322 313
110 101 90 64 40 35 21 6 1 354 347 4 7 359 21 21 19 18 359 5 17 22 19 30 18 18 11 2 360 4 8 5 360 360 359 357 353 346 345 349 343 343 335
Wind_Speed_850mb
51 42 35 20 5 8 17 22 18 7 8 7 9 5 6 10 10 21 25 35 37 36 37 33 31 19 34 45 45 36 33 29 31 28 16 11 5 16 22 26 20 22 28
60 50 40 22 12 7 15 19 18 8 3 7 11 11 10 6 8 17 22 33 31 39 43 39 32 29 32 47 44 39 37 35 33 38 26 21 9 24 27 30 34 36 29
64 51 47 33 22 17 15 14 14 8 7 7 6 8 11 3 6 11 20 26 27 33 39 43 28 30 32 42 45 46 41 40 37 27 26 15 16 50 23 36 32 33 35
62 53 53 45 30 27 15 13 13 12 4 7 10 18 10 8 1 11 10 13 19 25 32 42 29 30 30 35 36 45 37 32 33 33 18 18 25 29 35 46 34 29 34
70 63 62 49 37 33 21 12 11 11 6 4 9 8 9 15 10 8 6 10 13 18 28 39 29 26 34 28 32 37 47 34 27 29 26 18 22 28 35 47 51 36 25
67 64 58 54 45 38 26 15 9 13 11 6 0 1 2 8 11 6 2 3 15 19 29 37 26 23 24 28 28 26 33 38 30 28 27 27 27 29 36 42 44 44 36
67 63 68 65 58 45 27 17 14 10 11 8 4 7 1 6 1 7 12 14 7 17 31 33 31 22 19 25 22 21 25 32 33 36 30 30 23 23 29 35 42 44 35
63 69 73 66 60 38 29 21 19 14 13 10 9 12 6 7 10 12 19 9 13 12 21 30 29 27 16 21 27 28 21 28 29 29 31 32 24 24 19 28 34 42 36
63 70 67 65 47 35 37 27 26 19 14 13 15 14 11 7 10 11 9 12 15 18 21 19 25 29 20 20 24 26 27 27 27 26 26 29 32 23 19 25 21 22 30
74 69 68 61 52 39 40 34 27 21 16 18 15 13 13 16 14 19 18 17 21 25 17 17 20 24 21 25 26 27 26 27 32 28 26 30 33 29 24 22 20 19 22
73 79 72 61 54 40 40 39 31 20 18 18 16 16 19 23 19 22 23 22 24 26 23 20 19 22 25 23 28 28 28 30 33 32 29 32 32 33 29 27 20 18 19
31 52 65 68 56 42 41 40 30 13 10 17 18 20 23 24 24 23 23 25 31 30 26 27 25 23 25 28 31 35 35 34 36 37 38 44 35 37 33 32 26 24 23
51 65 66 61 52 46 38 38 26 16 16 17 19 23 26 24 24 26 29 31 33 32 24 27 29 29 30 28 29 34 38 40 43 44 51 49 44 39 38 40 35 32 30
17 24 31 47 52 43 44 35 25 13 8 16 18 20 23 27 32 33 33 31 32 31 27 28 31 34 36 37 38 41 41 41 46 52 53 48 45 41 37 38 36 39 37
9 51 64 70 51 45 43 32 22 21 17 16 15 19 23 28 28 31 36 33 31 31 30 33 36 41 45 45 43 43 45 48 52 53 56 56 49 41 41 42 43 42 41
41 43 29 46 43 46 39 31 26 20 16 17 17 21 21 24 32 36 38 36 38 39 40 43 45 49 51 51 50 49 52 54 59 62 61 58 50 39 39 40 41 39 39
32 24 26 29 33 28 28 21 13 10 16 20 21 14 19 25 31 36 41 42 43 46 49 53 57 61 65 63 60 57 56 59 63 66 70 63 52 42 42 37 41 42 40
27 28 29 28 31 29 11 8 2 9 17 19 20 19 18 21 28 36 43 47 49 52 57 61 66 72 75 75 74 70 65 62 77 76 75 68 55 45 45 42 37 38 35
18 18 16 20 24 19 12 8 4 9 16 22 24 25 25 29 34 42 48 53 54 57 61 64 73 77 75 74 75 81 72 65 72 72 63 61 55 45 52 57 49 35 36
18 15 17 20 22 16 4 4 7 12 17 20 23 26 30 35 42 48 53 50 58 68 67 64 60 85 62 62 63 64 65 66 63 54 43 50 22 26 35 44 40 41 40
20 14 16 22 19 13 12 17 19 22 24 24 25 30 35 39 44 50 53 57 67 70 69 64 59 57 54 55 52 55 53 61 61 47 47 48 35 43 42 47 50 45 43
23 13 14 20 17 15 17 13 11 14 26 25 26 39 40 44 48 50 53 54 54 54 58 66 65 55 45 48 49 52 54 55 57 54 48 46 42 45 46 52 57 62 64
17 19 13 18 18 10 7 17 27 22 25 35 41 42 42 41 39 40 40 51 51 55 58 59 58 50 36 46 45 44 51 53 55 52 53 53 49 46 46 48 52 54 54
19 21 28 31 27 17 8 17 32 19 26 33 38 36 39 41 42 47 40 46 51 54 56 60 55 47 42 44 47 50 52 51 50 46 47 48 50 44 45 43 44 45 45
33 31 35 32 22 11 17 18 18 24 30 32 33 33 38 41 39 43 45 42 46 51 55 56 44 48 55 56 55 59 60 58 54 53 54 52 53 52 48 47 40 40 37
33 33 29 21 18 15 17 19 20 24 26 28 31 42 32 42 40 36 39 43 44 41 47 36 50 53 54 59 65 65 66 60 57 60 61 58 54 50 50 48 44 42 40
Wind_Direction_850mb
194 172 191 223 263 349 358 9 30 91 97 162 185 171 178 34 343 342 345 355 8 15 17 24 27 11 6 353 360 12 23 9 5 36 76 84 324 333 355 3 320 327 328
179 177 189 203 232 298 322 354 11 49 141 127 93 122 101 60 7 343 348 348 5 11 11 11 21 9 10 2 10 18 23 24 27 25 35 5 353 5 24 7 357 346 331
179 180 189 194 218 228 287 327 353 23 99 153 119 145 125 186 325 315 335 358 347 359 2 2 9 3 11 11 25 26 20 22 26 46 29 355 336 340 332 352 1 350 345
186 188 187 189 207 223 251 301 336 352 67 209 143 172 160 186 91 302 352 351 321 343 351 352 359 11 11 19 19 23 18 20 14 29 33 355 349 346 330 342 352 343 344
190 189 187 192 198 213 240 279 319 338 359 174 205 226 216 215 243 53 43 0 337 332 342 344 353 16 20 16 12 17 19 15 19 17 15 1 342 354 347 336 348 354 356
191 189 191 188 196 204 231 254 304 321 343 346 266 280 67 108 155 79 8 165 356 337 334 337 353 10 21 15 5 8 13 11 2 4 2 358 343 341 348 342 344 345 357
190 186 189 184 188 199 217 238 268 301 321 323 309 301 295 131 168 240 271 271 237 331 323 337 349 1 6 353 350 355 2 358 6 9 3 7 1 331 321 336 341 338 352
185 186 186 184 184 198 216 231 247 268 294 296 286 286 292 228 257 273 295 247 262 302 321 330 342 349 344 338 355 357 354 347 346 358 356 358 359 8 6 348 333 335 346
184 177 180 184 190 202 218 232 230 245 268 285 284 292 295 325 265 311 316 334 330 300 300 308 318 341 338 327 332 345 346 339 338 342 331 340 345 347 339 340 326 332 330
182 184 188 184 198 203 215 225 222 241 265 274 295 301 301 309 311 315 326 320 322 332 312 324 314 315 336 323 321 327 334 333 331 331 324 328 330 343 342 336 352 333 315
179 184 179 186 188 198 217 216 212 228 250 281 292 286 286 298 297 296 309 309 314 317 311 308 315 313 304 305 307 318 322 324 322 326 327 317 308 314 324 329 313 321 319
303 171 183 185 191 201 211 215 210 225 271 280 276 282 293 310 320 320 317 304 303 310 305 311 308 311 304 306 293 293 299 302 313 309 310 312 310 294 299 308 317 305 300
17 339 180 189 189 192 209 213 211 197 214 252 271 292 299 302 312 314 315 307 305 305 302 302 303 304 301 299 299 302 306 306 299 305 312 305 303 296 283 285 294 307 300
339 353 247 225 194 190 193 198 196 199 215 243 272 271 283 294 305 308 307 303 306 306 307 301 299 300 300 299 300 301 297 300 301 304 311 313 299 290 286 276 288 293 293
182 244 224 212 188 190 194 197 197 201 224 265 274 272 285 295 299 307 315 315 315 311 310 309 308 304 300 296 296 294 292 292 293 298 304 309 305 283 277 280 276 280 285
252 252 228 194 194 187 195 196 209 230 275 302 286 276 285 293 301 308 318 317 315 315 315 315 312 310 306 302 296 290 290 290 290 294 297 301 306 283 280 267 275 276 273
48 63 135 159 169 180 181 197 223 272 308 314 321 290 298 296 301 305 310 313 315 315 315 314 312 311 311 311 308 303 300 299 296 296 295 296 300 290 285 286 276 272 271
83 91 109 115 129 156 161 160 211 317 317 322 328 331 314 300 296 296 300 305 308 311 314 315 317 316 318 320 317 310 304 307 302 302 304 301 301 294 287 281 277 273 271
87 98 100 113 127 119 132 151 220 313 324 324 321 319 313 302 295 295 300 304 309 310 314 319 322 320 324 325 322 315 307 308 305 295 312 298 293 280 287 288 276 275 279
98 92 83 96 107 115 123 10 18 348 339 330 319 312 307 304 304 306 311 312 313 314 320 324 325 322 323 327 328 328 325 320 328 332 316 320 304 291 284 290 286 280 286
117 103 80 94 91 89 70 43 20 3 337 326 323 326 319 313 311 309 313 318 322 325 327 330 334 335 333 338 338 342 347 342 343 341 330 319 309 289 281 287 287 288 293
130 132 109 92 88 73 81 59 11 10 343 325 319 321 322 330 332 327 325 328 338 348 347 347 346 347 348 349 346 348 348 350 349 346 342 340 328 318 300 289 284 285 289
142 150 118 97 115 133 153 355 359 330 339 315 317 328 327 333 341 343 352 354 356 351 349 356 355 2 353 353 3 354 348 344 341 340 339 339 333 318 304 303 301 299 297
151 121 130 138 147 168 201 328 341 313 332 320 332 340 335 331 334 342 6 3 7 17 11 9 12 15 17 13 0 350 344 342 343 341 339 337 338 341 338 333 326 318 309
132 124 119 116 109 53 355 354 338 328 324 334 336 342 346 355 20 15 11 13 8 9 14 14 29 25 15 10 1 356 353 353 354 355 355 347 343 341 345 343 335 322 313
110 101 90 64 40 35 21 6 1 354 347 4 7 359 21 21 19 18 359 5 17 22 19 30 18 18 11 2 360 4 8 5 360 360 359 357 353 346 345 349 343 343 335